Home   Weather   Port Laoise   Past weeks
Flag for Ireland

Past Weather in Port Laoise, Ireland — Yesterday and Last 2 Weeks

Now
58 °F

Light rain. Cloudy.


Feels Like: 58 °F
Forecast: 69 / 53 °F
Wind: 2 mph from East

Location: Mullingar

Current Time: Jul 19, 2019 at 11:30:01 am

Latest Report: Jul 19, 2019 at 10:00 am


Visibility: 7 mi

Pressure: 29.63 "Hg

Humidity: 99%

Dew Point: 57 °F

Location of Port LaoiseLocation

Past Weather in Port Laoise — Graph

°F

Port Laoise Temperature Yesterday

Maximum temperature yesterday: 67 °F (at 2:00 pm)
Minimum temperature yesterday: 52 °F (at 3:00 am)
Average temperature yesterday: 60 °F

High & Low Weather Summary for the Past Weeks

 TemperatureHumidityPressure
High73 °F (Jul 15, 5:00 pm)100% (Jul 5, 6:00 am)30.33 "Hg (Jul 5, 6:00 am)
Low47 °F (Jul 5, 5:00 am)53% (Jul 14, 4:00 pm)29.63 "Hg (Jul 19, 10:00 am)
Average60 °F83%30.05 "Hg
* Reported Jul 4 10:00 am — Jul 19 10:00 am, Port Laoise. Weather by CustomWeather, © 2019

Note: Actual official high and low records may vary slightly from our data, if they occured in-between our weather recording intervals... More about our weather records

Advertising

Port Laoise Weather History for the Previous 24 Hours

Scroll right to see more
 ConditionsComfort  
Time TempWeatherWind HumidityBarometerVisibility
10:00 am
Fri, Jul 19
58 °FLight rain. Cloudy.2 mph99%29.63 "Hg7 mi
9:00 am57 °FCool.3 mph98%29.65 "Hg3 mi
8:00 am57 °FCool.3 mph94%29.67 "Hg13 mi
7:00 am56 °FCool.2 mph94%29.68 "Hg19 mi
6:00 am56 °FCool.2 mph88%29.70 "Hg31 mi
5:00 am56 °FCool.2 mph87%29.72 "Hg22 mi
4:00 am56 °FCool.2 mph87%29.74 "Hg31 mi
3:00 am54 °FCool.1 mph92%29.76 "Hg31 mi
2:00 am53 °FCool.1 mph95%29.78 "Hg31 mi
1:00 am53 °FCool.1 mph91%29.79 "Hg28 mi
12:00 am56 °FCool.1 mph82%29.80 "Hg31 mi
11:00 pm
Thu, Jul 18
57 °FCool.2 mph78%29.80 "Hg31 mi
10:00 pm59 °FCool.2 mph76%29.80 "Hg31 mi
9:00 pm61 °FCool.2 mph71%29.79 "Hg28 mi
8:00 pm62 °FCool.2 mph65%29.79 "Hg31 mi
7:00 pm65 °FMild.3 mph59%29.78 "Hg28 mi
6:00 pm65 °FMild.3 mph61%29.78 "Hg31 mi
5:00 pm65 °FMild.3 mph67%29.78 "Hg19 mi
4:00 pm66 °FMild.3 mph62%29.78 "Hg22 mi
3:00 pm65 °FMild.5 mph59%29.78 "Hg22 mi
2:00 pm67 °FMild.5 mph61%29.78 "Hg22 mi
1:00 pm65 °FMild.5 mph65%29.78 "Hg22 mi
12:00 pm63 °FMild.5 mph65%29.79 "Hg17 mi
11:00 am63 °FMild.5 mph67%29.78 "Hg25 mi
Weather by CustomWeather, © 2019

See weather overview